星链-36965(STARLINK-36965)

导读

STARLINK-36965(NORAD编号68961)是美国SpaceX公司星链(Starlink)星座中的一颗卫星,归属星链第二代V2-mini批次,属于低轨卫星。该卫星于2025年11月15日由猎鹰九号火箭在肯尼迪航天中心39A发射台随星链6-89任务发射入轨。 作为星链全球卫星互联网的组成部分,它工作于近地轨道,为全球提供宽带互联网服务,当前伴随SpaceX 2026年整体降轨安全计划,该星链卫星所属批次将逐步降低轨道高度,优化太空运行安全,减少轨道碎片风险。

Basic Information
目录编号:
68961
目录名称:
STARLINK-36965
国际标识:
2026-099L
轨道中心:
EARTH
卫星名称:
星链-36965
卫星全名:
星链-36965(STARLINK-36965)
卫星状态:
在轨 (已飞行126 天)
发射日期:
2026-05-01 UTC
国别 :
美国 (US)
星等 :
--
Orbit Information
数据来源 国际轨道数据
星历时间: 2026-09-04T13:08:37+0800
13小时前
查看轨道信息
半长轴: 6840.813km
偏心率: 0.0001304
轨道倾角: 53.157°
近地点辐角 81.543°
升交点赤经 151.974°
平近点角 278.572°
近地点: 461.783km
远地点: 463.569km
周期: 93.847分钟
每日圈数: 15.344094
Detailed Information
固有亮度:
5
最大亮度:
2.5
卫星平台:
Starlink V1.0
覆盖范围:
全球
运营商:
太空探索技术公司
运营商所在国:
美国
制造商(研发单位):
太空探索技术公司
制造商所在国:
美国
使用方式:
暂无
Satellite Introduction
Starlink 计划是 SpaceX 推出的全球卫星互联网项目,通过发射低轨道卫星,为全球尤其是偏远地区提供高速、低延迟的互联网服务。自 2019 年起,Starlink 已部署数千颗卫星,旨在缩小全球数字鸿沟,推动互联网普及。该项目还为军事、航空等行业提供通信支持,带来广泛经济效益。
2D Orbit Map
3D Orbit Map
Orbit Altitude Analysis Chart
Orbit Inclination Analysis Chart
Orbit Comprehensive Analysis Chart
View Comprehensive Chart
Conjunction Data List
Event ID Objects TCA Miss Dist (km) Collision Risk Probability Collision Risk Index (CRI) Action
CDM_260906-090504-945406-896121
2026-09-06T
09:05:06+0000
0.428 km
远距离
1.099274E-4 高风险 0.76
CDM_260906-064404-945406-896121
2026-09-06T
06:44:25+0000
1.264 km
极远距离
3.726279E-6 低风险 0.46
CDM_260906-151205-317706-896121
2026-09-06T
15:12:35+0000
2.594 km
极远距离
1.279759E-6 低风险 0.37
CDM_260906-051004-945406-896121
2026-09-06T
05:10:37+0000
2.838 km
极远距离
5.583943E-7 极低风险 0.3